Cosmos 1707 - Orbit

View from above orbital plane
View from above orbital plane
View from above satellite
View from above satellite

Ground track
Ground track

The orbit data is extracted from the following two-line orbital elements,

1 16326U 85113A   13142.19757280  .00001770  00000-0  12008-3 0  6431
2 16326 082.5195 221.9083 0011115 342.2978 017.7861 15.05796212492901
Epoch (UTC): 22 May 2013 04:44:30
Eccentricity: 0.0011115
inclination: 82.5195°
perigee height: 541 km
apogee height: 557 km
right ascension of ascending node: 221.9083°
argument of perigee: 342.2978°
revolutions per day: 15.05796212
mean anomaly at epoch: 17.7861°
orbit number at epoch: 49290

The dashed part of the orbit path shows where the satellite is in the earth's shadow,  

Developed and maintained by Chris Peat, Heavens-Above GmbH. Please read the updated FAQ before sending e-mail. Imprint. DLR